Date String (YYYY-MM-DD hh:mm:ss) UTC,Instrument flags,Ambient pressure (hPa),Sample flow (lpm),Bypass flow (lpm),Sample temperature (°C),Ambient temperature (°C),ASC tube jacket temperature (°C),LED temperature (°C),Box temperature (°C),Sample RH (%),Span deviation,Mass concentration (μg/m³),Mass concentration (μg/m³),Mass concentration (μg/m³)
DateTimeUTC,F1_M11,P_M11,Q1_M11,Q2_M11,T1_M11,T2_M11,T3_M11,T4_M11,T5_M11,U1_M11,ZSPAN_M11,X2_M11,X0_M11,X1_M11
2021-09-04 01:00:00,,0828.1,5.00,0.00,30.7,28.3,00.0,39.3,31.7,31.0,0001.2,0010.23,0019.40,0009.35
2021-09-04 01:01:00,,0828.0,5.00,0.00,30.7,28.6,00.0,39.4,31.7,31.5,0001.4,0010.27,0019.01,0009.43
2021-09-04 01:02:00,,0828.0,4.99,0.00,30.7,28.7,00.0,39.4,31.8,29.3,0001.8,0010.41,0018.55,0009.55
2021-09-04 01:03:00,,0828.0,5.01,0.00,30.7,28.9,00.0,39.4,31.9,28.7,0002.0,0010.59,0017.93,0009.67
2021-09-04 01:04:00,,0828.0,5.00,0.00,30.7,29.0,00.0,39.4,31.9,28.2,0001.7,0010.69,0016.39,0009.81
2021-09-04 01:05:00,,0828.0,5.00,0.00,30.7,29.1,00.0,39.5,32.0,28.1,0001.7,0010.83,0016.06,0009.98
2021-09-04 01:06:00,,0828.0,5.00,0.00,30.8,29.1,00.0,39.5,32.0,28.0,0001.8,0011.00,0016.00,0010.13
2021-09-04 01:07:00,,0828.0,5.01,0.00,30.7,27.7,00.0,39.5,31.6,28.1,0001.7,0011.13,0015.62,0010.27
2021-09-04 01:08:00,,0828.0,5.00,0.00,30.5,26.1,00.0,39.4,31.2,28.3,0001.6,0011.25,0015.55,0010.41
2021-09-04 01:09:00,,0828.0,4.99,0.00,30.4,25.7,00.0,39.4,31.1,28.5,0001.6,0011.35,0015.58,0010.51
2021-09-04 01:10:00,,0828.0,5.01,0.00,30.2,26.1,00.0,39.4,31.1,28.7,0001.6,0011.42,0015.52,0010.58
2021-09-04 01:11:00,,0828.1,5.00,0.00,30.2,26.6,00.0,39.3,31.2,28.9,0001.7,0011.50,0015.05,0010.69
2021-09-04 01:12:00,,0828.1,5.00,0.00,30.2,27.1,00.0,39.3,31.3,28.9,0001.7,0011.57,0015.09,0010.79
2021-09-04 01:13:00,,0828.2,5.01,0.00,30.1,27.5,00.0,39.2,31.4,28.8,0001.7,0011.67,0015.24,0010.90
2021-09-04 01:14:00,,0828.2,4.99,0.00,30.1,27.9,00.0,39.2,31.5,29.0,0001.6,0011.69,0015.23,0010.96
2021-09-04 01:15:00,,0828.2,5.01,0.00,30.1,28.1,00.0,39.2,31.5,29.2,0001.7,0011.75,0015.57,0011.01
2021-09-04 01:16:00,,0828.3,5.00,0.00,30.2,28.3,00.0,39.2,31.6,29.2,0001.9,0011.82,0015.46,0011.05
2021-09-04 01:17:00,,0828.4,4.99,0.00,30.2,28.5,00.0,39.2,31.6,29.6,0002.2,0011.88,0015.42,0011.10
2021-09-04 01:18:00,,0828.5,5.01,0.00,30.2,28.7,00.0,39.2,31.7,29.7,0002.3,0011.95,0016.03,0011.14
2021-09-04 01:19:00,,0828.5,5.00,0.00,30.2,28.8,00.0,39.2,31.7,29.7,0002.3,0012.00,0016.39,0011.14
2021-09-04 01:20:00,,0828.6,5.00,0.00,30.2,28.9,00.0,39.2,31.7,30.3,0002.2,0012.07,0016.67,0011.15
2021-09-04 01:21:00,,0829.1,5.00,0.00,30.3,28.9,00.0,39.2,31.7,30.5,0002.1,0012.12,0016.77,0011.17
2021-09-04 01:22:00,,0828.9,5.00,0.00,30.2,27.4,00.0,39.2,31.3,30.9,0002.0,0012.14,0016.88,0011.18
2021-09-04 01:23:00,,0828.9,5.00,0.00,30.0,25.8,00.0,39.1,30.9,31.6,0001.6,0012.19,0017.08,0011.18
2021-09-04 01:24:00,,0828.7,5.01,0.00,29.9,25.5,00.0,39.1,30.8,32.2,0001.5,0012.21,0017.32,0011.14
2021-09-04 01:25:00,,0828.6,5.00,0.00,29.7,25.9,00.0,39.0,30.9,32.5,0001.2,0012.20,0018.58,0011.10
2021-09-04 01:26:00,,0828.9,4.99,0.00,29.7,26.4,00.0,39.0,31.0,32.7,0001.2,0012.20,0018.62,0011.07
2021-09-04 01:27:00,,0828.7,5.00,0.00,29.7,26.9,00.0,38.9,31.1,32.8,0001.4,0012.20,0018.59,0011.04
2021-09-04 01:28:00,,0829.1,4.99,0.00,29.7,27.3,00.0,38.9,31.2,32.4,0001.5,0012.19,0018.65,0010.99
2021-09-04 01:29:00,,0828.8,5.01,0.00,29.7,27.7,00.0,38.9,31.2,31.8,0001.5,0012.08,0018.16,0010.90
2021-09-04 01:30:00,,0828.9,5.00,0.00,29.7,27.9,00.0,38.8,31.3,31.3,0001.5,0011.94,0017.85,0010.78
2021-09-04 01:31:00,,0828.9,4.99,0.00,29.8,28.2,00.0,38.8,31.4,31.2,0001.6,0011.69,0017.72,0010.60
2021-09-04 01:32:00,,0828.9,5.00,0.00,29.8,28.4,00.0,38.8,31.4,31.2,0001.5,0011.43,0017.69,0010.37
2021-09-04 01:33:00,,0828.9,5.00,0.00,29.8,28.5,00.0,38.8,31.5,31.2,0001.4,0011.16,0017.21,0010.16
2021-09-04 01:34:00,,0828.9,4.99,0.00,29.8,28.6,00.0,38.9,31.5,31.1,0001.8,0010.86,0016.75,0009.92
2021-09-04 01:35:00,,0828.9,5.02,0.00,29.9,28.8,00.0,38.9,31.6,31.1,0001.9,0010.54,0016.35,0009.69
2021-09-04 01:36:00,,0828.9,5.00,0.00,29.9,28.9,00.0,38.9,31.6,31.1,0002.1,0010.30,0015.02,0009.49
2021-09-04 01:37:00,,0828.9,4.99,0.00,29.9,28.9,00.0,38.9,31.7,31.0,0002.4,0010.08,0014.56,0009.30
2021-09-04 01:38:00,,0828.9,5.01,0.00,30.0,29.0,00.0,38.9,31.7,31.0,0002.3,0009.80,0014.76,0009.08
2021-09-04 01:39:00,,0828.8,5.00,0.00,30.0,29.1,00.0,38.9,31.7,30.8,0002.4,0009.55,0014.40,0008.87
2021-09-04 01:40:00,,0828.8,5.00,0.00,30.0,28.7,00.0,38.9,31.6,30.9,0002.3,0009.35,0014.19,0008.69
2021-09-04 01:41:00,,0828.8,5.00,0.00,29.9,26.7,00.0,38.9,31.1,31.1,0002.3,0009.23,0013.96,0008.58
2021-09-04 01:42:00,,0828.9,4.99,0.00,29.7,25.6,00.0,38.9,30.8,31.1,0002.2,0009.20,0013.69,0008.55
2021-09-04 01:43:00,,0828.8,4.99,0.00,29.6,25.5,00.0,38.9,30.8,31.6,0002.3,0009.19,0013.47,0008.54
2021-09-04 01:44:00,,0828.9,5.01,0.00,29.5,26.0,00.0,38.8,30.8,31.8,0002.3,0009.16,0014.16,0008.52
2021-09-04 01:45:00,,0828.9,5.01,0.00,29.5,26.6,00.0,38.7,30.9,31.6,0001.9,0009.14,0014.12,0008.51
2021-09-04 01:46:00,,0828.9,4.99,0.00,29.5,27.0,00.0,38.7,31.0,31.5,0001.7,0009.15,0013.94,0008.50
2021-09-04 01:47:00,,0829.0,5.01,0.00,29.5,27.4,00.0,38.7,31.1,31.4,0002.0,0009.09,0013.67,0008.48
2021-09-04 01:48:00,,0829.1,4.99,0.00,29.5,27.7,00.0,38.7,31.2,31.2,0001.8,0009.04,0013.45,0008.45
2021-09-04 01:49:00,,0829.2,5.01,0.00,29.5,28.0,00.0,38.7,31.2,31.1,0001.7,0009.02,0012.87,0008.44
2021-09-04 01:50:00,,0829.3,4.99,0.00,29.6,28.2,00.0,38.7,31.3,30.9,0001.5,0009.04,0013.03,0008.46
2021-09-04 01:51:00,,0829.3,5.01,0.00,29.6,28.4,00.0,38.7,31.3,30.8,0001.5,0009.04,0013.02,0008.47
2021-09-04 01:52:00,,0829.3,4.99,0.00,29.6,28.5,00.0,38.7,31.4,30.5,0001.5,0009.04,0013.03,0008.47
2021-09-04 01:53:00,,0829.2,5.00,0.00,29.7,28.6,00.0,38.7,31.4,30.2,0001.7,0009.01,0012.87,0008.45
2021-09-04 01:54:00,,0829.2,4.99,0.00,29.7,28.7,00.0,38.7,31.5,30.2,0001.8,0008.98,0012.67,0008.44
2021-09-04 01:55:00,,0829.3,5.01,0.00,29.7,28.8,00.0,38.7,31.5,30.1,0002.1,0009.00,0012.11,0008.46
2021-09-04 01:56:00,,0829.2,5.00,0.00,29.8,28.9,00.0,38.7,31.6,29.9,0002.5,0009.04,0012.30,0008.49
2021-09-04 01:57:00,,0829.3,5.00,0.00,29.8,29.0,00.0,38.8,31.6,29.8,0002.5,0009.06,0012.23,0008.52
2021-09-04 01:58:00,,0829.2,5.00,0.00,29.8,29.0,00.0,38.8,31.7,29.7,0002.4,0009.09,0012.18,0008.57
2021-09-04 01:59:00,,0829.3,5.00,0.00,29.8,28.0,00.0,38.8,31.4,29.7,0002.1,0009.14,0012.23,0008.61
